BWA28 TISX-MYNN

Flight info

Callsign BWA28
Flight time 2h 8m
Altitude 34000
Route DCT VEDAS DCT HARBG Y330 PURPE DCT BOSAR A555 LEPAS DCT BURRL DCT
Aircraft B38M/M-SDE1FGHILORVWXY/HB1

Departure

Time 2026-05-05 00:24
Airport Henry E. Rohlsen Airport (TISX)

Arrival

Time 2026-05-05 02:32
Airport Lynden Pindling International Airport (MYNN)
Time Latitude Longitude Altitude Speed Heading
2026-05-05 00:10 17.69987 -64.79664 83 ft 0 kts 178°
2026-05-05 00:17 17.69999 -64.79664 83 ft 2 kts 185°
2026-05-05 00:17 17.70017 -64.79658 83 ft 3 kts 212°
2026-05-05 00:17 17.70031 -64.79643 83 ft 3 kts 240°
2026-05-05 00:17 17.70034 -64.79637 83 ft 0 kts 246°
2026-05-05 00:19 17.70050 -64.79671 83 ft 13 kts 296°
2026-05-05 00:19 17.70058 -64.79748 83 ft 12 kts 266°
2026-05-05 00:19 17.70052 -64.79843 83 ft 15 kts 266°
2026-05-05 00:19 17.70036 -64.79984 83 ft 23 kts 263°
2026-05-05 00:20 17.70017 -64.80156 83 ft 23 kts 263°
2026-05-05 00:20 17.69996 -64.80324 83 ft 24 kts 264°
2026-05-05 00:20 17.69986 -64.80487 83 ft 20 kts 264°
2026-05-05 00:20 17.69969 -64.80616 83 ft 21 kts 263°
2026-05-05 00:21 17.69947 -64.80831 83 ft 33 kts 263°
2026-05-05 00:21 17.69919 -64.81081 83 ft 33 kts 265°
2026-05-05 00:21 17.69893 -64.81334 83 ft 35 kts 262°
2026-05-05 00:21 17.69870 -64.81526 83 ft 20 kts 266°
2026-05-05 00:22 17.69929 -64.81600 83 ft 10 kts 354°
2026-05-05 00:22 17.69944 -64.81601 83 ft 0 kts
2026-05-05 00:23 17.69976 -64.81600 83 ft 11 kts
2026-05-05 00:23 17.70014 -64.81547 83 ft 4 kts 84°
2026-05-05 00:23 17.70015 -64.81546 83 ft 0 kts 84°
2026-05-05 00:23 17.70025 -64.81441 83 ft 63 kts 84°
2026-05-05 00:24 17.70121 -64.80510 84 ft 192 kts 84°
2026-05-05 00:24 17.70299 -64.78752 476 ft 283 kts 84°
2026-05-05 00:24 17.70500 -64.76839 1119 ft 242 kts 84°
2026-05-05 00:24 17.70700 -64.75200 1834 ft 216 kts 84°
2026-05-05 00:25 17.70705 -64.73663 2552 ft 210 kts 102°
2026-05-05 00:25 17.69980 -64.72349 3311 ft 222 kts 132°
2026-05-05 00:25 17.68584 -64.71514 4089 ft 243 kts 159°
2026-05-05 00:25 17.66845 -64.71403 4859 ft 258 kts 184°
2026-05-05 00:26 17.65170 -64.72102 5608 ft 271 kts 209°
2026-05-05 00:26 17.63854 -64.73564 6336 ft 285 kts 235°
2026-05-05 00:26 17.63049 -64.75484 7104 ft 290 kts 249°
2026-05-05 00:26 17.62493 -64.77521 7856 ft 291 kts 255°
2026-05-05 00:27 17.62434 -64.79638 8607 ft 294 kts 277°
2026-05-05 00:27 17.62904 -64.81739 9375 ft 297 kts 286°
2026-05-05 00:27 17.63554 -64.83789 10127 ft 299 kts 289°
2026-05-05 00:27 17.64276 -64.85845 10883 ft 300 kts 290°
2026-05-05 00:28 17.65021 -64.87893 11636 ft 301 kts 291°
2026-05-05 00:28 17.65851 -64.89935 12399 ft 313 kts 294°
2026-05-05 00:28 17.66820 -64.92120 13169 ft 354 kts 295°
2026-05-05 00:28 17.67931 -64.94549 13941 ft 376 kts 295°
2026-05-05 00:29 17.69096 -64.97058 14698 ft 389 kts 296°
2026-05-05 00:29 17.70296 -64.99607 15445 ft 398 kts 296°
2026-05-05 00:29 17.71542 -65.02224 16200 ft 404 kts 296°
2026-05-05 00:29 17.72805 -65.04861 16951 ft 408 kts 296°
2026-05-05 00:30 17.74089 -65.07544 17708 ft 411 kts 296°
2026-05-05 00:30 17.75363 -65.10223 18457 ft 413 kts 296°
2026-05-05 00:30 17.76650 -65.12939 19211 ft 417 kts 296°
2026-05-05 00:30 17.77938 -65.15651 19957 ft 421 kts 296°
2026-05-05 00:31 17.79271 -65.18452 20719 ft 426 kts 296°
2026-05-05 00:31 17.80590 -65.21217 21461 ft 433 kts 296°
2026-05-05 00:31 17.81861 -65.24150 22235 ft 438 kts 292°
2026-05-05 00:31 17.82971 -65.27093 22997 ft 441 kts 289°
2026-05-05 00:32 17.84010 -65.30166 23766 ft 445 kts 288°
2026-05-05 00:32 17.84980 -65.33280 24534 ft 450 kts 287°
2026-05-05 00:32 17.85895 -65.36405 25282 ft 455 kts 286°
2026-05-05 00:32 17.86798 -65.39614 26008 ft 461 kts 286°
2026-05-05 00:33 17.87685 -65.42850 26657 ft 459 kts 285°
2026-05-05 00:33 17.88550 -65.46053 27284 ft 456 kts 285°
2026-05-05 00:33 17.89406 -65.49249 27911 ft 453 kts 285°
2026-05-05 00:33 17.90259 -65.52441 28538 ft 452 kts 285°
2026-05-05 00:34 17.91114 -65.55623 29163 ft 454 kts 286°
2026-05-05 00:34 17.92191 -65.58752 29794 ft 458 kts 294°
2026-05-05 00:34 17.93546 -65.61752 30425 ft 461 kts 298°
2026-05-05 00:34 17.95092 -65.64718 31001 ft 465 kts 300°
2026-05-05 00:35 17.96765 -65.67684 31528 ft 468 kts 302°
2026-05-05 00:35 17.98465 -65.70565 32028 ft 470 kts 302°
2026-05-05 00:35 18.00220 -65.73468 32530 ft 472 kts 302°
2026-05-05 00:35 18.02006 -65.76390 33034 ft 474 kts 302°
2026-05-05 00:36 18.03790 -65.79298 33534 ft 476 kts 302°
2026-05-05 00:36 18.05588 -65.82229 33932 ft 477 kts 302°
2026-05-05 00:36 18.06789 -65.84192 34020 ft 478 kts 301°
2026-05-05 00:37 18.10931 -65.90993 34091 ft 471 kts 301°
2026-05-05 00:37 18.14424 -65.96777 34086 ft 468 kts 301°
2026-05-05 00:38 18.17900 -66.02568 34083 ft 467 kts 301°
2026-05-05 00:38 18.19836 -66.05809 34073 ft 467 kts 301°
2026-05-05 00:39 18.23266 -66.11567 34069 ft 466 kts 301°
2026-05-05 00:39 18.26698 -66.17351 34055 ft 466 kts 301°
2026-05-05 00:40 18.30118 -66.23129 34055 ft 466 kts 301°
2026-05-05 00:40 18.33546 -66.28934 34055 ft 465 kts 301°
2026-05-05 00:41 18.36938 -66.34688 34055 ft 465 kts 300°
2026-05-05 00:41 18.40340 -66.40467 34056 ft 465 kts 300°
2026-05-05 00:42 18.43753 -66.46273 34058 ft 464 kts 300°
2026-05-05 00:42 18.47147 -66.52054 34058 ft 464 kts 300°
2026-05-05 00:43 18.50533 -66.57826 34057 ft 463 kts 300°
2026-05-05 00:43 18.53931 -66.63625 34063 ft 463 kts 300°
2026-05-05 00:44 18.57289 -66.69363 34064 ft 463 kts 300°
2026-05-05 00:44 18.60683 -66.75166 34064 ft 462 kts 300°
2026-05-05 00:45 18.64030 -66.80896 34065 ft 462 kts 300°
2026-05-05 00:45 18.67398 -66.86667 34066 ft 461 kts 300°
2026-05-05 00:46 18.70755 -66.92423 34066 ft 461 kts 300°
2026-05-05 00:46 18.74111 -66.98184 34067 ft 460 kts 300°
2026-05-05 00:47 18.77464 -67.03945 34067 ft 460 kts 300°
2026-05-05 00:47 18.80815 -67.09709 34066 ft 460 kts 300°
2026-05-05 00:48 18.84153 -67.15453 34066 ft 460 kts 300°
2026-05-05 00:48 18.87495 -67.21212 34065 ft 459 kts 300°
2026-05-05 00:49 18.90811 -67.26930 34064 ft 459 kts 300°
2026-05-05 00:49 18.94148 -67.32692 34062 ft 459 kts 300°
2026-05-05 00:50 18.97473 -67.38435 34061 ft 459 kts 300°
2026-05-05 00:50 19.00805 -67.44197 34059 ft 458 kts 300°
2026-05-05 00:51 19.04108 -67.49916 34057 ft 458 kts 300°
2026-05-05 00:51 19.07451 -67.55708 34055 ft 458 kts 300°
2026-05-05 00:52 19.10769 -67.61462 34053 ft 458 kts 300°
2026-05-05 00:52 19.14064 -67.67181 34051 ft 458 kts 300°
2026-05-05 00:53 19.17372 -67.72929 34049 ft 458 kts 300°
2026-05-05 00:53 19.20673 -67.78670 34047 ft 457 kts 300°
2026-05-05 00:54 19.23988 -67.84441 34051 ft 457 kts 299°
2026-05-05 00:54 19.27287 -67.90188 34051 ft 457 kts 299°
2026-05-05 00:55 19.30581 -67.95934 34057 ft 457 kts 299°
2026-05-05 00:55 19.33853 -68.01647 34057 ft 456 kts 299°
2026-05-05 00:56 19.37150 -68.07407 34056 ft 456 kts 299°
2026-05-05 00:56 19.40430 -68.13144 34055 ft 455 kts 299°
2026-05-05 00:57 19.43696 -68.18862 34054 ft 455 kts 299°
2026-05-05 00:57 19.46975 -68.24610 34053 ft 455 kts 299°
2026-05-05 00:58 19.50238 -68.30334 34052 ft 455 kts 299°
2026-05-05 00:58 19.53513 -68.36083 34051 ft 454 kts 299°
2026-05-05 00:59 19.56779 -68.41825 34015 ft 454 kts 299°
2026-05-05 00:59 19.60041 -68.47564 34006 ft 454 kts 299°
2026-05-05 01:00 19.63300 -68.53303 34003 ft 454 kts 299°
2026-05-05 01:00 19.66556 -68.59043 34000 ft 454 kts 299°
2026-05-05 01:01 19.69812 -68.64789 33997 ft 454 kts 299°
2026-05-05 01:01 19.73061 -68.70528 33995 ft 454 kts 299°
2026-05-05 01:02 19.76310 -68.76274 33993 ft 453 kts 299°
2026-05-05 01:02 19.79556 -68.82021 33990 ft 453 kts 299°
2026-05-05 01:03 19.82777 -68.87730 33989 ft 453 kts 299°
2026-05-05 01:03 19.86022 -68.93462 33987 ft 453 kts 300°
2026-05-05 01:04 19.89396 -68.99093 33986 ft 452 kts 301°
2026-05-05 01:04 19.94595 -69.07462 33984 ft 452 kts 301°
2026-05-05 01:05 19.98081 -69.13029 33984 ft 451 kts 302°
2026-05-05 01:05 20.01565 -69.18592 33984 ft 451 kts 301°
2026-05-05 01:06 20.05035 -69.24143 33984 ft 450 kts 301°
2026-05-05 01:06 20.08469 -69.29649 33984 ft 449 kts 301°
2026-05-05 01:07 20.11932 -69.35215 33984 ft 448 kts 301°
2026-05-05 01:07 20.15350 -69.40717 33996 ft 448 kts 301°
2026-05-05 01:08 20.18792 -69.46267 33989 ft 448 kts 301°
2026-05-05 01:08 20.22225 -69.51809 33981 ft 447 kts 301°
2026-05-05 01:09 20.25640 -69.57328 33981 ft 447 kts 301°
2026-05-05 01:09 20.29034 -69.62819 33981 ft 446 kts 301°
2026-05-05 01:10 20.32446 -69.68347 33982 ft 446 kts 301°
2026-05-05 01:10 20.35860 -69.73881 33983 ft 446 kts 301°
2026-05-05 01:11 20.38804 -69.78659 33992 ft 446 kts 301°
2026-05-05 01:11 20.41839 -69.83590 33993 ft 446 kts 301°
2026-05-05 01:12 20.45248 -69.89132 33993 ft 446 kts 301°
2026-05-05 01:12 20.48646 -69.94661 33993 ft 446 kts 301°
2026-05-05 01:13 20.52028 -70.00170 33993 ft 446 kts 301°
2026-05-05 01:13 20.55433 -70.05720 33993 ft 446 kts 301°
2026-05-05 01:14 20.58820 -70.11249 33993 ft 446 kts 301°
2026-05-05 01:14 20.62215 -70.16794 33993 ft 446 kts 300°
2026-05-05 01:15 20.65614 -70.22352 33993 ft 446 kts 300°
2026-05-05 01:15 20.69001 -70.27896 33993 ft 446 kts 300°
2026-05-05 01:16 20.72386 -70.33443 33993 ft 446 kts 300°
2026-05-05 01:16 20.75775 -70.39000 33993 ft 446 kts 300°
2026-05-05 01:17 20.79148 -70.44536 33993 ft 446 kts 300°
2026-05-05 01:17 20.82532 -70.50097 33993 ft 446 kts 300°
2026-05-05 01:18 20.85916 -70.55663 33993 ft 446 kts 300°
2026-05-05 01:18 20.89305 -70.61243 33997 ft 446 kts 300°
2026-05-05 01:19 20.92668 -70.66786 33997 ft 446 kts 300°
2026-05-05 01:19 20.96035 -70.72341 33995 ft 446 kts 299°
2026-05-05 01:20 20.99411 -70.77916 33994 ft 446 kts 299°
2026-05-05 01:20 21.02792 -70.83505 33994 ft 446 kts 299°
2026-05-05 01:21 21.05684 -70.88290 33994 ft 446 kts 299°
2026-05-05 01:21 21.09044 -70.93854 33994 ft 446 kts 299°
2026-05-05 01:22 21.12408 -70.99431 33992 ft 446 kts 299°
2026-05-05 01:22 21.15782 -71.05027 33993 ft 446 kts 299°
2026-05-05 01:23 21.19129 -71.10586 33993 ft 446 kts 299°
2026-05-05 01:23 21.22492 -71.16178 33993 ft 446 kts 299°
2026-05-05 01:24 21.25861 -71.21786 33993 ft 446 kts 299°
2026-05-05 01:24 21.29216 -71.27375 33993 ft 446 kts 298°
2026-05-05 01:25 21.32002 -71.32020 33993 ft 446 kts 298°
2026-05-05 01:25 21.35906 -71.38537 33993 ft 446 kts 298°
2026-05-05 01:26 21.38698 -71.43202 33993 ft 446 kts 298°
2026-05-05 01:26 21.42039 -71.48790 33993 ft 445 kts 298°
2026-05-05 01:27 21.45396 -71.54411 33993 ft 445 kts 298°
2026-05-05 01:27 21.48735 -71.60005 33993 ft 445 kts 298°
2026-05-05 01:28 21.52077 -71.65611 33993 ft 445 kts 298°
2026-05-05 01:28 21.55407 -71.71203 33993 ft 445 kts 298°
2026-05-05 01:29 21.58721 -71.76775 33993 ft 445 kts 298°
2026-05-05 01:29 21.62047 -71.82371 33993 ft 444 kts 298°
2026-05-05 01:30 21.65367 -71.87963 33993 ft 444 kts 297°
2026-05-05 01:30 21.68691 -71.93569 33993 ft 444 kts 297°
2026-05-05 01:31 21.72027 -71.99201 33993 ft 444 kts 297°
2026-05-05 01:31 21.75334 -72.04788 33993 ft 444 kts 297°
2026-05-05 01:32 21.78643 -72.10386 33993 ft 443 kts 297°
2026-05-05 01:32 21.81949 -72.15983 33993 ft 443 kts 297°
2026-05-05 01:33 21.85261 -72.21598 33993 ft 443 kts 297°
2026-05-05 01:33 21.88566 -72.27205 33993 ft 443 kts 297°
2026-05-05 01:34 21.91863 -72.32807 33993 ft 443 kts 297°
2026-05-05 01:34 21.95148 -72.38391 33993 ft 443 kts 297°
2026-05-05 01:35 21.98444 -72.44002 33994 ft 443 kts 297°
2026-05-05 01:35 22.01737 -72.49612 33994 ft 443 kts 297°
2026-05-05 01:36 22.05033 -72.55232 33995 ft 442 kts 297°
2026-05-05 01:36 22.08308 -72.60823 33995 ft 442 kts 297°
2026-05-05 01:37 22.11597 -72.66445 33996 ft 441 kts 297°
2026-05-05 01:37 22.14868 -72.72042 33997 ft 441 kts 297°
2026-05-05 01:38 22.18139 -72.77646 33998 ft 440 kts 297°
2026-05-05 01:38 22.21375 -72.83197 33999 ft 440 kts 297°
2026-05-05 01:39 22.24630 -72.88785 34001 ft 439 kts 296°
2026-05-05 01:39 22.27877 -72.94369 34002 ft 439 kts 297°
2026-05-05 01:40 22.31119 -72.99951 34004 ft 438 kts 296°
2026-05-05 01:40 22.34405 -73.05514 34005 ft 438 kts 297°
2026-05-05 01:41 22.37769 -73.10969 34007 ft 439 kts 298°
2026-05-05 01:41 22.41191 -73.16436 34009 ft 438 kts 298°
2026-05-05 01:42 22.44588 -73.21845 34011 ft 438 kts 298°
2026-05-05 01:42 22.48035 -73.27338 34013 ft 437 kts 298°
2026-05-05 01:43 22.51429 -73.32757 34015 ft 437 kts 298°
2026-05-05 01:43 22.54835 -73.38207 34016 ft 437 kts 298°
2026-05-05 01:44 22.58239 -73.43664 34018 ft 437 kts 298°
2026-05-05 01:44 22.61632 -73.49112 34020 ft 436 kts 298°
2026-05-05 01:45 22.65020 -73.54560 34022 ft 436 kts 298°
2026-05-05 01:45 22.68405 -73.60010 34024 ft 436 kts 298°
2026-05-05 01:46 22.71789 -73.65466 34026 ft 436 kts 298°
2026-05-05 01:46 22.75148 -73.70888 34028 ft 436 kts 298°
2026-05-05 01:47 22.78530 -73.76353 34030 ft 436 kts 298°
2026-05-05 01:47 22.81903 -73.81810 34031 ft 435 kts 298°
2026-05-05 01:48 22.85277 -73.87273 34032 ft 435 kts 298°
2026-05-05 01:48 22.88624 -73.92700 34034 ft 435 kts 298°
2026-05-05 01:49 22.91983 -73.98151 34035 ft 435 kts 298°
2026-05-05 01:49 22.95340 -74.03605 34037 ft 434 kts 298°
2026-05-05 01:50 22.98692 -74.09056 34038 ft 434 kts 298°
2026-05-05 01:50 23.02037 -74.14500 34039 ft 433 kts 297°
2026-05-05 01:51 23.05361 -74.19918 34040 ft 433 kts 297°
2026-05-05 01:51 23.08699 -74.25363 34041 ft 432 kts 297°
2026-05-05 01:52 23.12031 -74.30806 34042 ft 432 kts 297°
2026-05-05 01:52 23.15359 -74.36248 34043 ft 432 kts 297°
2026-05-05 01:53 23.18686 -74.41694 34044 ft 432 kts 297°
2026-05-05 01:53 23.22012 -74.47143 34044 ft 432 kts 297°
2026-05-05 01:54 23.25334 -74.52593 34045 ft 432 kts 297°
2026-05-05 01:54 23.28636 -74.58014 34045 ft 432 kts 297°
2026-05-05 01:55 23.31951 -74.63462 34045 ft 432 kts 297°
2026-05-05 01:55 23.35269 -74.68924 34046 ft 432 kts 297°
2026-05-05 01:56 23.38567 -74.74357 34046 ft 432 kts 297°
2026-05-05 01:56 23.41877 -74.79814 34046 ft 432 kts 297°
2026-05-05 01:57 23.45183 -74.85272 34046 ft 432 kts 297°
2026-05-05 01:57 23.48492 -74.90739 34047 ft 432 kts 297°
2026-05-05 01:58 23.51800 -74.96211 34047 ft 432 kts 297°
2026-05-05 01:58 23.55101 -75.01678 34047 ft 432 kts 297°
2026-05-05 01:59 23.58383 -75.07119 34047 ft 432 kts 297°
2026-05-05 01:59 23.61682 -75.12595 34047 ft 432 kts 297°
2026-05-05 02:00 23.64976 -75.18068 34047 ft 432 kts 297°
2026-05-05 02:00 23.68266 -75.23540 34047 ft 432 kts 297°
2026-05-05 02:01 23.71556 -75.29018 34047 ft 432 kts 297°
2026-05-05 02:01 23.74849 -75.34507 34047 ft 432 kts 297°
2026-05-05 02:02 23.78143 -75.40004 34047 ft 432 kts 297°
2026-05-05 02:02 23.81433 -75.45499 34047 ft 432 kts 297°
2026-05-05 02:03 23.84691 -75.50948 34046 ft 432 kts 297°
2026-05-05 02:03 23.87981 -75.56455 34046 ft 431 kts 297°
2026-05-05 02:04 23.91262 -75.61955 34046 ft 432 kts 297°
2026-05-05 02:04 23.94536 -75.67448 34046 ft 432 kts 297°
2026-05-05 02:05 23.97815 -75.72957 34046 ft 432 kts 297°
2026-05-05 02:05 24.01075 -75.78439 34049 ft 432 kts 297°
2026-05-05 02:06 24.04344 -75.83942 34050 ft 432 kts 297°
2026-05-05 02:06 24.07630 -75.89480 34050 ft 431 kts 297°
2026-05-05 02:07 24.10877 -75.94959 34050 ft 431 kts 297°
2026-05-05 02:07 24.14143 -76.00475 34050 ft 431 kts 297°
2026-05-05 02:08 24.17408 -76.05996 34050 ft 431 kts 297°
2026-05-05 02:08 24.20663 -76.11507 34050 ft 431 kts 297°
2026-05-05 02:09 24.23918 -76.17025 34050 ft 431 kts 297°
2026-05-05 02:09 24.27180 -76.22559 34050 ft 431 kts 297°
2026-05-05 02:10 24.30418 -76.28059 34050 ft 431 kts 297°
2026-05-05 02:10 24.33668 -76.33587 34050 ft 430 kts 297°
2026-05-05 02:11 24.36910 -76.39106 34050 ft 430 kts 297°
2026-05-05 02:11 24.40122 -76.44581 34050 ft 429 kts 297°
2026-05-05 02:12 24.44432 -76.51938 34050 ft 428 kts 297°
2026-05-05 02:13 24.47634 -76.57411 34050 ft 428 kts 297°
2026-05-05 02:13 24.50848 -76.62911 34049 ft 427 kts 297°
2026-05-05 02:14 24.54056 -76.68408 34050 ft 427 kts 297°
2026-05-05 02:14 24.57257 -76.73901 33903 ft 427 kts 297°
2026-05-05 02:14 24.58857 -76.76649 33333 ft 426 kts 297°
2026-05-05 02:15 24.60450 -76.79388 32718 ft 425 kts 297°
2026-05-05 02:15 24.62037 -76.82117 32095 ft 423 kts 297°
2026-05-05 02:15 24.63650 -76.84832 31470 ft 423 kts 299°
2026-05-05 02:15 24.65308 -76.87502 30845 ft 422 kts 300°
2026-05-05 02:16 24.66994 -76.90134 30220 ft 421 kts 301°
2026-05-05 02:16 24.68701 -76.92746 29594 ft 420 kts 301°
2026-05-05 02:16 24.70395 -76.95309 28975 ft 418 kts 301°
2026-05-05 02:16 24.72111 -76.97887 28349 ft 417 kts 302°
2026-05-05 02:17 24.73908 -77.00446 27715 ft 418 kts 305°
2026-05-05 02:17 24.75846 -77.02832 27092 ft 418 kts 308°
2026-05-05 02:17 24.77858 -77.05088 26476 ft 418 kts 310°
2026-05-05 02:17 24.79944 -77.07299 25855 ft 417 kts 311°
2026-05-05 02:18 24.82069 -77.09482 25228 ft 416 kts 312°
2026-05-05 02:18 24.84208 -77.11646 24600 ft 415 kts 313°
2026-05-05 02:18 24.86331 -77.13783 23976 ft 414 kts 313°
2026-05-05 02:18 24.88448 -77.15916 23351 ft 413 kts 313°
2026-05-05 02:19 24.90567 -77.18061 22722 ft 411 kts 313°
2026-05-05 02:19 24.92659 -77.20194 22097 ft 409 kts 312°
2026-05-05 02:19 24.94741 -77.22327 21471 ft 407 kts 312°
2026-05-05 02:19 24.96815 -77.24456 20843 ft 405 kts 312°
2026-05-05 02:20 24.98853 -77.26554 20223 ft 403 kts 312°
2026-05-05 02:20 25.00720 -77.28809 19576 ft 368 kts 301°
2026-05-05 02:20 25.01906 -77.30942 18958 ft 304 kts 300°
2026-05-05 02:20 25.03213 -77.32621 18268 ft 276 kts 310°
2026-05-05 02:21 25.04595 -77.33973 17524 ft 257 kts 314°
2026-05-05 02:21 25.05964 -77.35164 16769 ft 243 kts 315°
2026-05-05 02:21 25.07304 -77.36257 16012 ft 235 kts 318°
2026-05-05 02:21 25.08280 -77.36968 15468 ft 230 kts 320°
2026-05-05 02:22 25.09628 -77.37900 14714 ft 225 kts 321°
2026-05-05 02:22 25.10954 -77.38802 13960 ft 221 kts 321°
2026-05-05 02:22 25.12256 -77.39688 13208 ft 218 kts 322°
2026-05-05 02:22 25.13508 -77.40545 12514 ft 211 kts 321°
2026-05-05 02:23 25.14743 -77.41395 11787 ft 209 kts 321°
2026-05-05 02:23 25.16041 -77.42315 11068 ft 232 kts 322°
2026-05-05 02:23 25.17429 -77.43336 10319 ft 247 kts 322°
2026-05-05 02:23 25.18792 -77.44359 9547 ft 225 kts 322°
2026-05-05 02:24 25.20049 -77.45316 8789 ft 215 kts 322°
2026-05-05 02:24 25.21202 -77.46341 8036 ft 210 kts 315°
2026-05-05 02:24 25.22243 -77.47436 7292 ft 206 kts 313°
2026-05-05 02:24 25.23253 -77.48550 6540 ft 203 kts 313°
2026-05-05 02:25 25.24242 -77.49663 5788 ft 201 kts 313°
2026-05-05 02:25 25.25201 -77.50764 5058 ft 197 kts 313°
2026-05-05 02:25 25.26137 -77.51860 4311 ft 196 kts 312°
2026-05-05 02:25 25.27046 -77.52987 3544 ft 196 kts 304°
2026-05-05 02:26 25.27423 -77.54396 2773 ft 193 kts 268°
2026-05-05 02:26 25.26994 -77.55765 2044 ft 190 kts 231°
2026-05-05 02:26 25.26005 -77.56648 2026 ft 184 kts 210°
2026-05-05 02:26 25.24870 -77.57403 2018 ft 192 kts 207°
2026-05-05 02:27 25.23733 -77.58126 2005 ft 191 kts 206°
2026-05-05 02:27 25.22579 -77.58856 2001 ft 191 kts 207°
2026-05-05 02:27 25.21385 -77.59482 1975 ft 189 kts 193°
2026-05-05 02:27 25.20091 -77.59431 2029 ft 187 kts 167°
2026-05-05 02:28 25.18812 -77.59095 2012 ft 189 kts 162°
2026-05-05 02:28 25.17553 -77.58723 2000 ft 187 kts 161°
2026-05-05 02:28 25.16291 -77.58382 1999 ft 186 kts 164°
2026-05-05 02:28 25.15052 -77.57994 1999 ft 184 kts 158°
2026-05-05 02:29 25.13915 -77.57370 2000 ft 183 kts 147°
2026-05-05 02:29 25.12912 -77.56517 2001 ft 181 kts 137°
2026-05-05 02:29 25.12057 -77.55527 2010 ft 178 kts 130°
2026-05-05 02:29 25.11279 -77.54490 1967 ft 169 kts 128°
2026-05-05 02:30 25.10534 -77.53521 1684 ft 162 kts 130°
2026-05-05 02:30 25.09796 -77.52648 1368 ft 153 kts 133°
2026-05-05 02:30 25.09072 -77.51841 1112 ft 144 kts 135°
2026-05-05 02:30 25.08378 -77.51077 902 ft 138 kts 135°
2026-05-05 02:31 25.07698 -77.50342 729 ft 135 kts 136°
2026-05-05 02:31 25.07033 -77.49620 568 ft 134 kts 135°
2026-05-05 02:31 25.06377 -77.48897 402 ft 133 kts 135°
2026-05-05 02:31 25.05731 -77.48180 231 ft 133 kts 135°
2026-05-05 02:32 25.05072 -77.47447 58 ft 132 kts 135°
2026-05-05 02:32 25.04457 -77.46758 26 ft 123 kts 135°
2026-05-05 02:32 25.03962 -77.46199 25 ft 69 kts 135°
2026-05-05 02:32 25.03824 -77.46049 25 ft 0 kts 135°
2026-05-05 02:33 25.03799 -77.46021 25 ft 16 kts 135°
2026-05-05 02:33 25.03691 -77.45904 25 ft 16 kts 130°
2026-05-05 02:33 25.03677 -77.45796 27 ft 10 kts 90°
2026-05-05 02:33 25.03698 -77.45724 28 ft 26 kts 66°
2026-05-05 02:34 25.03730 -77.45691 25 ft 2 kts 354°
2026-05-05 02:34 25.03788 -77.45762 25 ft 23 kts 294°
2026-05-05 02:34 25.03868 -77.45857 25 ft 25 kts 313°
2026-05-05 02:34 25.04017 -77.46137 26 ft 51 kts 296°